Regional Weather Roundup
Issued by NWS

Home | Current Version | Previous Version | Graphics & Text | Print | Product List | Glossary On
Versions: 1 2 3 4 5 6 7 8 9 10 11 12 13 14 15 16 17 18 19 20 21 22 23 24 25 26 27 28 29 30 31 32 33 34 35 36 37 38 39 40 41 42 43 44 45 46 47 48 49 50
000
ASUS43 KFSD 031710
RWRSD

WEATHER ROUNDUP FOR SOUTH DAKOTA
NATIONAL WEATHER SERVICE SIOUX FALLS SD
1200 PM CDT MON AUG 03 2015

NOTE: "FAIR" INDICATES FEW OR NO CLOUDS BELOW 12,000 FEET WITH NO
SIGNIFICANT WEATHER AND/OR OBSTRUCTIONS TO VISIBILITY.


SDZ001>005-009-010-012>017-031800-
NORTHWEST AND NORTH CENTRAL SOUTH DAKOTA

CITY           SKY/WX    TMP DP  RH WIND       PRES   REMARKS
BUFFALO          N/A     78  51  38 SE14      29.99F
FAITH            N/A     77  49  37 S7        30.04S
MOBRIDGE       SUNNY     78  53  41 NW7       30.00S
$$

SDZ012>016-024>037-041>051-057-063-072>074-031800-
SOUTHWEST AND SOUTH CENTRAL SOUTH DAKOTA

CITY           SKY/WX    TMP DP  RH WIND       PRES   REMARKS
RAPID CTY ARPT SUNNY     76  59  55 SE8       30.05S
PIERRE         SUNNY     79  53  40 VRB5      30.01S
CUSTER         SUNNY     70  55  59 SE12G20   30.16S
ELLSWORTH AFB  SUNNY     78  58  51 S8        30.05S
PHILIP         SUNNY     78  59  51 VRB7      30.02S
PINE RIDGE     MOSUNNY   80  60  50 SE15      30.03F
SPEARFISH      FAIR      75  59  57 E6        30.06F
WINNER         FAIR      81  56  42 E3        30.02F
$$

SDZ004>011-016>023-039-040-031800-
NORTHEAST SOUTH DAKOTA

CITY           SKY/WX    TMP DP  RH WIND       PRES   REMARKS
ABERDEEN       SUNNY     77  50  38 VRB5      30.00S
WATERTOWN      SUNNY     74  52  46 W9        30.00S
BROOKINGS      SUNNY     73  55  53 W7        30.02S
SISSETON         N/A     76  50  40 NW14G21   29.97S
$$

SDZ017-020-022-023-036>040-048>070-031800-
SOUTHEAST SOUTH DAKOTA

CITY           SKY/WX    TMP DP  RH WIND       PRES   REMARKS
SIOUX FALLS    MOSUNNY   78  57  48 NW3       30.00S
HURON          SUNNY     78  55  44 W5        30.00R
CHAMBERLAIN    PTSUNNY   76  59  56 CALM      30.02S
MITCHELL       SUNNY     78  60  53 CALM      30.00S
YANKTON        SUNNY     75  63  64 SE3       29.99S
$$

ABBREVIATIONS USED IN REMARKS
   TC - TEMPERATURE IN CELSIUS
  WCI - WIND CHILL INDEX
   HX - HEAT INDEX
  VSB - VISIBILITY




USA.gov is the U.S. government's official web portal to all federal, state and local government web resources and services.